SCP
0 0 -0 -0 -0 -0 0 0 0 0 0 0 0 -0 -0 0 0 0 0 0 0 0 0 0 0 0 0 0 0 0 0 0 0 0 0 0 0 0 0 0 0 0 0 0
0 0 0 0 0 0 0 0 0 0 0 -0 -0 -0 0 0 0 0 0 0 0 0 0 0 0 0 0 0 0 0 0 0 0 0 -0 0 0 0 0 0 0 0 0 0
0 0 0 0 0 0 0 0 0 0 0 0 0 0 0 0 0 0 0 0 -0 0 0 -0 0 0 0 0 0 0 0 0 0 0 -0 0 0 0 0 0 0 0 0 0
0 0 0 0 0 0 0 0 0 0 0 0 0 0 0 0 0 0 0 0 0 0 0 0 0 0 0 0 0 0 0 0 0 0 -0 0 0 0 0 0 0 0 0 0
0 0 0 0 0 -0 0 0 0 0 0 0 0 0 0 0 0 0 0 0 0 0 0 0 0 0 0 0 0 0 0 0 0 0 0 -0 0 0 0 0 0 0 0 0
0 0 0 0 0 0 0 0 0 0 0 0 0 0 0 0 0 0 0 0 0 -0 0 0 0 0 0 0 0 0 0 0 0 0 0 0 0 0 0 0 0 0 0 0
0 0 0 0 0 0 0 0 0 0 0 0 0 -0 0 0 0 0 0 0 0 0 0 0 0 0 0 0 0 0 0 0 0 0 0 0 0 0 0 0 0 0 0 0
0 0 0 0 0 0 0 0 0 0 0 0 0 0 0 0 0 0 0 0 0 0 0 0 0 0 0 0 0 0 0 0 0 0 0 0 0 0 0 0 0 0 0 0
0 0 0 0 0 0 0 0 0 0 0 0 0 0 0 0 0 0 0 0 0 0 0 0 0 0 0 0 0 0 0 0 0 0 0 0 0 0 0 0 0 0 0 0
0 0 0 0 0 0 0 0 0 0 0 0 0 0 0 0 0 0 0 0 0 0 0 0 0 0 -0 0 0 0 0 0 0 0 0 0 0 0 0 0 0 0 0 0
0 0 0 0 0 0 0 0 0 0 0 0 0 0 0 0 0 0 0 0 0 0 0 0 0 0 0 0 0 0 0 0 0 0 0 0 0 0 0 0 0 0 0 0
0 0 0 0 0 0 0 0 0 0 0 0 0 0 0 0 0 0 0 0 0 0 0 0 0 0 0 0 0 0 0 0 0 0 0 0 0 0 0 0 0 0 0 0
0 0 0 0 0 0 0 0 0 0 0 0 0 0 0 0 0 0 0 0 1 0 1 0 0 0 0 0 0 0 0 0 0 0 0 0 0 0 0 0 0 0 0 0
0 0 0 0 0 0 0 0 0 0 0 0 0 0 0 0 0 0 0 0 0 1 0 0 0 0 0 0 0 0 0 0 0 0 0 0 0 0 0 0 0 0 0 0
0 0 0 0 0 0 0 0 0 0 0 0 0 0 0 0 0 0 0 0 0 0 0 0 0 0 0 0 0 0 0 0 0 0 0 0 0 0 0 0 0 0 0 0
0 0 0 0 0 0 0 0 0 0 0 0 0 0 0 0 0 0 0 0 0 0 0 0 0 0 0 0 0 0 0 0 0 0 0 0 0 0 0 0 0 0 0 0
0 0 0 0 0 0 0 0 0 0 0 0 0 0 0 0 0 0 0 0 0 0 0 0 0 0 0 0 0 0 0 0 0 0 0 0 0 0 0 0 0 0 0 0
0 0 0 0 0 0 0 0 0 0 0 0 0 0 0 0 0 0 0 0 0 0 0 0 0 0 0 0 0 0 0 0 0 0 0 0 0 0 0 0 0 0 0 -0
0 0 0 0 0 0 0 0 0 0 0 0 0 0 0 0 0 0 0 0 0 0 0 0 0 0 0 0 0 0 0 0 0 0 0 0 0 0 0 0 0 0 0 -0
0 0 0 0 0 0 0 0 0 0 0 0 0 0 0 0 0 0 0 0 0 0 0 0 0 0 0 0 0 0 0 0 0 0 0 0 0 0 0 0 0 0 0 -0
0 0 0 0 0 0 0 0 0 0 0 0 0 0 0 0 0 0 0 0 0 0 0 0 0 0 0 0 0 0 0 0 0 0 0 0 0 0 0 0 0 0 0 -0
0 0 0 0 0 0 0 0 0 0 0 0 0 0 0 0 0 0 0 0 0 0 0 0 0 0 0 0 0 0 0 0 0 0 0 0 0 0 0 0 0 0 0 -0
0 0 0 0 0 0 0 0 0 0 0 0 0 0 0 0 -0 0 0 0 0 0 0 0 0 0 0 0 0 0 0 0 0 0 0 0 0 0 0 0 0 0 0 0
0 0 0 0 0 0 0 0 0 -0 0 0 0 0 0 0 0 -0 0 0 0 0 0 0 0 0 0 0 0 0 0 0 0 0 0 0 0 0 0 0 0 0 0 0
0 0 0 0 0 0 0 0 0 0 0 0 0 0 0 0 0 0 0 0 0 0 0 0 0 1 0 0 0 0 0 0 0 0 0 0 0 0 0 0 0 0 0 0
0 0 0 0 0 0 0 0 0 -0 0 0 0 0 0 0 0 0 0 0 -0 0 0 0 0 0 0 0 0 0 0 0 0 0 0 0 0 0 0 0 0 0 0 0
0 0 0 0 0 -0 0 0 0 0 0 0 0 0 0 0 0 0 0 0 0 0 0 0 1 1 0 0 0 0 0 0 0 0 0 0 0 0 0 0 0 0 0 0
Wind_Speed_500mb
43 44 44 46 51 48 34 13 8 8 16 20 27 22 29 7 13 5 20 17 25 15 19 13 11 18 13 15 3 4 8 6 15 32 14 2 14 20 19 13 19 20 20 8
42 41 39 39 41 50 55 24 34 7 19 16 18 31 9 11 15 25 16 19 17 18 16 7 18 20 15 13 5 9 13 7 15 14 23 13 10 3 5 12 10 18 16 7
41 40 36 33 30 34 41 16 9 20 20 35 26 24 13 18 22 23 17 15 25 17 16 23 8 4 11 13 17 13 10 9 17 20 27 14 14 15 9 7 6 18 21 6
41 39 36 31 25 21 29 13 7 12 9 5 20 16 21 24 13 18 25 18 23 17 15 22 22 12 21 11 12 3 5 17 21 26 34 17 20 24 22 20 19 20 23 20
39 38 36 31 25 14 11 23 18 26 40 29 22 12 23 27 26 19 12 20 24 23 21 23 18 15 5 9 17 12 12 13 21 24 24 30 19 23 22 22 18 22 19 10
36 36 33 29 23 11 12 23 24 20 25 25 17 22 26 25 29 21 13 13 21 29 15 18 20 16 11 14 3 15 15 11 13 18 28 17 14 17 15 20 3 7 12 15
33 34 33 26 21 17 16 20 27 21 20 23 25 27 21 21 11 13 23 21 18 9 12 17 8 3 6 9 15 12 12 13 12 15 19 19 1 4 5 13 6 4 5 2
33 31 32 27 20 17 18 14 20 25 20 34 35 24 15 21 27 22 25 10 9 4 7 6 8 11 17 26 23 17 12 15 2 6 12 20 21 12 3 1 14 6 9 11
32 29 27 28 22 20 15 13 15 18 23 19 33 28 24 14 19 21 28 8 5 1 12 14 22 21 21 7 17 11 10 13 6 8 7 7 16 16 11 8 11 22 19 6
32 29 28 25 25 20 19 13 15 21 35 47 31 21 16 27 30 20 18 19 7 11 11 18 21 22 26 21 30 16 15 16 18 14 8 12 13 20 8 6 5 19 9 8
33 29 26 22 22 24 18 12 13 15 31 52 38 34 24 26 23 17 15 20 21 16 17 19 19 19 16 13 11 16 8 14 15 18 19 19 26 14 6 15 15 11 5 12
31 29 23 20 17 22 19 15 16 21 26 45 41 40 37 32 25 18 14 20 16 21 12 16 11 14 11 8 11 7 14 10 6 2 4 12 16 9 22 18 14 11 13 13
31 30 25 22 19 17 19 20 21 24 34 49 50 55 45 42 39 27 13 9 11 6 10 12 6 4 12 9 11 14 8 13 6 3 10 14 17 14 13 8 15 16 18 15
32 30 26 24 23 21 19 20 18 16 20 20 29 20 30 35 29 35 38 29 22 17 12 17 9 9 8 12 14 7 4 13 11 15 17 16 20 24 17 12 19 20 18 15
30 30 27 25 26 22 20 24 23 21 16 13 30 39 21 29 32 32 34 29 23 17 19 10 14 28 14 18 14 20 15 15 13 10 12 24 14 32 29 25 23 20 19 17
28 28 27 24 24 18 12 8 14 26 24 11 9 7 37 36 30 29 33 35 30 30 28 25 34 20 9 12 15 31 31 14 13 7 10 9 4 37 32 29 25 22 18 18
27 28 25 24 25 21 20 11 1 16 26 9 12 13 29 30 31 32 35 36 39 35 38 39 36 17 17 17 18 25 9 3 13 9 20 18 21 30 27 27 26 25 20 21
27 25 25 24 27 27 31 31 20 7 17 11 9 18 9 36 34 36 39 39 38 42 41 42 36 20 22 16 29 44 24 21 19 21 22 18 23 26 29 29 28 28 25 28
22 19 17 17 26 25 30 26 19 32 21 10 14 20 21 20 43 41 40 38 17 28 27 34 31 20 17 20 31 32 37 28 28 30 25 23 29 31 31 31 30 28 29 26
15 11 12 12 18 26 20 18 14 16 15 15 12 32 22 17 15 20 29 20 17 21 25 36 23 21 40 37 25 28 30 31 32 37 31 32 31 33 32 31 28 25 31 30
13 12 16 9 19 21 13 14 17 14 8 15 21 47 29 13 3 8 15 8 17 22 14 23 22 22 32 41 42 32 28 34 34 35 31 30 31 34 31 29 26 23 31 33
14 11 18 14 15 13 10 10 10 9 10 20 28 44 54 15 8 11 6 6 8 19 29 18 12 22 44 44 53 43 35 37 37 37 34 32 30 31 29 28 26 25 30 34
21 9 7 6 8 13 12 16 10 9 17 25 29 18 44 26 12 3 5 9 12 7 16 16 17 38 38 41 49 47 39 39 38 38 34 30 27 26 28 27 25 31 33 41
9 8 8 9 10 13 15 20 18 22 31 16 31 24 30 22 10 9 10 9 7 9 2 17 17 29 42 37 38 47 44 43 41 36 33 30 28 27 26 26 30 35 37 44
9 10 9 15 21 32 24 25 8 24 14 24 10 16 8 9 7 9 8 7 4 12 14 9 38 43 40 44 46 47 47 47 41 36 33 31 29 29 28 29 31 33 36 42
9 11 14 26 28 31 14 17 24 5 24 6 8 6 6 7 5 10 15 7 10 6 1 21 44 47 34 47 49 49 46 46 42 36 33 32 30 31 30 32 29 30 36 40
9 15 25 25 33 25 41 42 13 19 11 7 6 10 9 7 8 9 8 15 14 11 25 32 38 53 53 47 45 48 46 42 40 36 34 31 30 31 33 30 30 31 35 40
Wind_Direction_500mb
329 332 334 335 334 334 341 315 273 133 167 208 231 235 244 288 311 193 248 279 295 291 269 273 239 67 66 54 46 216 56 343 306 305 306 169 294 289 304 303 303 302 310 31
330 332 336 337 341 340 345 316 293 206 201 235 246 228 221 250 250 244 233 241 249 279 277 295 277 101 100 89 357 49 351 223 273 296 302 100 304 15 14 282 310 288 291 290
329 332 336 334 335 335 336 295 277 190 211 253 292 300 219 233 203 270 289 266 249 223 248 250 261 190 90 86 72 45 356 282 266 273 289 314 256 283 251 243 282 284 290 332
328 331 333 333 326 326 326 256 329 7 284 292 287 264 299 301 216 194 248 245 264 240 239 259 220 193 134 134 115 167 253 257 265 273 271 283 286 282 289 284 271 269 284 313
326 329 332 334 330 324 291 306 351 341 302 292 298 268 260 273 273 279 212 225 260 240 243 239 256 295 130 232 159 205 186 273 269 269 295 278 243 276 281 272 286 293 298 283
325 326 330 334 337 348 318 0 323 294 295 288 253 255 254 240 267 255 239 298 257 258 253 86 61 38 33 360 328 169 220 248 275 275 289 294 283 294 300 281 243 319 300 65
321 321 327 330 335 332 316 317 325 299 288 275 268 250 269 277 273 302 305 237 282 84 101 104 119 346 313 264 250 251 282 210 259 272 297 282 350 86 309 300 296 156 234 87
319 317 325 326 324 313 299 301 312 298 286 282 291 285 280 282 271 252 261 273 79 314 196 211 205 229 234 244 235 176 246 283 230 247 291 295 251 158 192 216 280 196 205 121
318 315 313 322 318 313 290 306 298 281 289 247 347 318 309 278 262 244 223 132 99 236 268 216 245 254 237 238 181 128 235 236 193 239 213 271 106 131 137 98 271 86 100 102
312 310 304 309 321 313 304 280 304 283 277 274 281 291 315 313 301 285 266 133 184 197 227 247 250 241 253 241 204 174 193 208 225 213 242 258 151 136 135 234 111 108 87 89
307 306 299 301 313 321 303 253 276 291 278 272 292 301 287 294 297 308 336 176 214 189 228 242 251 262 271 281 260 156 207 192 214 224 234 242 137 146 250 107 112 119 113 98
305 303 294 281 300 321 312 292 280 266 271 268 285 282 273 270 279 319 301 228 279 223 207 230 251 238 269 253 247 231 213 216 214 60 192 90 128 107 115 140 152 139 137 117
300 300 293 267 277 294 303 291 290 298 279 280 266 261 259 251 245 238 269 217 350 341 11 294 232 281 267 247 261 259 189 224 204 200 151 166 163 124 146 170 158 138 133 143
286 293 291 262 263 275 291 282 281 285 286 282 270 270 258 224 227 225 238 260 303 295 275 256 276 238 283 271 296 260 20 128 233 242 213 168 197 170 174 147 130 144 144 146
277 287 288 262 254 269 282 280 266 252 253 310 295 309 264 226 226 229 228 232 251 262 235 246 250 266 270 269 269 271 223 194 207 229 248 181 205 179 172 158 166 163 151 140
274 284 281 266 250 263 301 295 209 219 233 281 278 294 244 227 215 227 224 220 225 236 253 248 243 248 257 264 262 251 249 273 171 267 193 184 144 154 163 167 174 168 164 155
271 280 277 264 239 243 245 247 21 211 214 245 251 248 237 225 210 223 222 214 221 226 234 242 257 219 215 246 254 289 147 205 160 189 141 143 167 155 162 168 163 161 160 158
271 271 278 263 237 254 254 249 233 234 209 250 261 265 289 196 210 215 207 207 211 227 231 237 233 212 191 233 238 251 255 176 181 181 178 180 169 164 165 162 162 166 164 154
263 260 287 253 238 245 242 237 224 219 224 276 275 243 238 187 224 215 197 207 203 215 217 228 229 221 217 218 240 233 219 183 192 180 188 168 172 172 169 173 176 177 173 165
248 259 231 238 216 212 188 177 180 195 214 233 254 269 275 173 247 254 177 235 212 205 219 207 237 223 220 222 225 227 202 191 190 184 189 175 175 174 178 186 189 193 181 174
219 221 229 240 181 185 204 205 189 182 236 222 234 243 259 19 149 279 251 196 214 211 218 218 211 221 223 217 212 219 196 189 192 189 189 185 186 180 184 190 194 193 176 174
220 271 289 272 197 206 217 198 189 193 231 194 224 223 229 212 180 253 311 294 283 217 186 170 236 214 212 217 217 197 192 188 189 186 185 185 190 184 181 187 191 189 177 178
265 245 255 247 233 221 228 198 161 215 206 222 217 222 208 191 131 352 5 214 263 324 183 202 205 213 203 199 199 181 176 186 178 183 182 178 174 174 177 181 186 181 173 182
245 211 247 245 206 225 220 233 212 211 230 220 216 226 193 196 158 146 261 229 299 170 26 224 188 193 168 166 176 162 172 173 176 176 165 165 169 169 174 177 177 171 179 184
247 219 239 230 229 295 280 260 159 241 253 217 290 103 233 169 192 212 227 206 247 266 188 203 136 137 156 165 160 162 166 167 166 164 166 167 165 167 166 169 171 171 180 175
246 242 246 279 294 277 284 221 278 165 226 112 157 216 203 204 226 194 216 235 187 299 5 143 143 141 163 154 156 162 167 166 162 164 166 165 167 166 164 164 169 181 180 181
250 248 245 275 290 270 274 296 353 305 201 205 225 224 208 179 217 231 210 230 266 298 339 340 152 153 153 154 159 159 162 160 159 161 163 167 166 164 162 162 173 180 184 179
Wind_Speed_850mb
43 44 44 46 51 48 34 13 8 8 16 20 27 22 29 7 13 5 20 17 25 15 19 13 11 18 13 15 3 4 8 6 15 32 14 2 14 20 19 13 19 20 20 8
42 41 39 39 41 50 55 24 34 7 19 16 18 31 9 11 15 25 16 19 17 18 16 7 18 20 15 13 5 9 13 7 15 14 23 13 10 3 5 12 10 18 16 7
41 40 36 33 30 34 41 16 9 20 20 35 26 24 13 18 22 23 17 15 25 17 16 23 8 4 11 13 17 13 10 9 17 20 27 14 14 15 9 7 6 18 21 6
41 39 36 31 25 21 29 13 7 12 9 5 20 16 21 24 13 18 25 18 23 17 15 22 22 12 21 11 12 3 5 17 21 26 34 17 20 24 22 20 19 20 23 20
39 38 36 31 25 14 11 23 18 26 40 29 22 12 23 27 26 19 12 20 24 23 21 23 18 15 5 9 17 12 12 13 21 24 24 30 19 23 22 22 18 22 19 10
36 36 33 29 23 11 12 23 24 20 25 25 17 22 26 25 29 21 13 13 21 29 15 18 20 16 11 14 3 15 15 11 13 18 28 17 14 17 15 20 3 7 12 15
33 34 33 26 21 17 16 20 27 21 20 23 25 27 21 21 11 13 23 21 18 9 12 17 8 3 6 9 15 12 12 13 12 15 19 19 1 4 5 13 6 4 5 2
33 31 32 27 20 17 18 14 20 25 20 34 35 24 15 21 27 22 25 10 9 4 7 6 8 11 17 26 23 17 12 15 2 6 12 20 21 12 3 1 14 6 9 11
32 29 27 28 22 20 15 13 15 18 23 19 33 28 24 14 19 21 28 8 5 1 12 14 22 21 21 7 17 11 10 13 6 8 7 7 16 16 11 8 11 22 19 6
32 29 28 25 25 20 19 13 15 21 35 47 31 21 16 27 30 20 18 19 7 11 11 18 21 22 26 21 30 16 15 16 18 14 8 12 13 20 8 6 5 19 9 8
33 29 26 22 22 24 18 12 13 15 31 52 38 34 24 26 23 17 15 20 21 16 17 19 19 19 16 13 11 16 8 14 15 18 19 19 26 14 6 15 15 11 5 12
31 29 23 20 17 22 19 15 16 21 26 45 41 40 37 32 25 18 14 20 16 21 12 16 11 14 11 8 11 7 14 10 6 2 4 12 16 9 22 18 14 11 13 13
31 30 25 22 19 17 19 20 21 24 34 49 50 55 45 42 39 27 13 9 11 6 10 12 6 4 12 9 11 14 8 13 6 3 10 14 17 14 13 8 15 16 18 15
32 30 26 24 23 21 19 20 18 16 20 20 29 20 30 35 29 35 38 29 22 17 12 17 9 9 8 12 14 7 4 13 11 15 17 16 20 24 17 12 19 20 18 15
30 30 27 25 26 22 20 24 23 21 16 13 30 39 21 29 32 32 34 29 23 17 19 10 14 28 14 18 14 20 15 15 13 10 12 24 14 32 29 25 23 20 19 17
28 28 27 24 24 18 12 8 14 26 24 11 9 7 37 36 30 29 33 35 30 30 28 25 34 20 9 12 15 31 31 14 13 7 10 9 4 37 32 29 25 22 18 18
27 28 25 24 25 21 20 11 1 16 26 9 12 13 29 30 31 32 35 36 39 35 38 39 36 17 17 17 18 25 9 3 13 9 20 18 21 30 27 27 26 25 20 21
27 25 25 24 27 27 31 31 20 7 17 11 9 18 9 36 34 36 39 39 38 42 41 42 36 20 22 16 29 44 24 21 19 21 22 18 23 26 29 29 28 28 25 28
22 19 17 17 26 25 30 26 19 32 21 10 14 20 21 20 43 41 40 38 17 28 27 34 31 20 17 20 31 32 37 28 28 30 25 23 29 31 31 31 30 28 29 26
15 11 12 12 18 26 20 18 14 16 15 15 12 32 22 17 15 20 29 20 17 21 25 36 23 21 40 37 25 28 30 31 32 37 31 32 31 33 32 31 28 25 31 30
13 12 16 9 19 21 13 14 17 14 8 15 21 47 29 13 3 8 15 8 17 22 14 23 22 22 32 41 42 32 28 34 34 35 31 30 31 34 31 29 26 23 31 33
14 11 18 14 15 13 10 10 10 9 10 20 28 44 54 15 8 11 6 6 8 19 29 18 12 22 44 44 53 43 35 37 37 37 34 32 30 31 29 28 26 25 30 34
21 9 7 6 8 13 12 16 10 9 17 25 29 18 44 26 12 3 5 9 12 7 16 16 17 38 38 41 49 47 39 39 38 38 34 30 27 26 28 27 25 31 33 41
9 8 8 9 10 13 15 20 18 22 31 16 31 24 30 22 10 9 10 9 7 9 2 17 17 29 42 37 38 47 44 43 41 36 33 30 28 27 26 26 30 35 37 44
9 10 9 15 21 32 24 25 8 24 14 24 10 16 8 9 7 9 8 7 4 12 14 9 38 43 40 44 46 47 47 47 41 36 33 31 29 29 28 29 31 33 36 42
9 11 14 26 28 31 14 17 24 5 24 6 8 6 6 7 5 10 15 7 10 6 1 21 44 47 34 47 49 49 46 46 42 36 33 32 30 31 30 32 29 30 36 40
9 15 25 25 33 25 41 42 13 19 11 7 6 10 9 7 8 9 8 15 14 11 25 32 38 53 53 47 45 48 46 42 40 36 34 31 30 31 33 30 30 31 35 40
Wind_Direction_850mb
329 332 334 335 334 334 341 315 273 133 167 208 231 235 244 288 311 193 248 279 295 291 269 273 239 67 66 54 46 216 56 343 306 305 306 169 294 289 304 303 303 302 310 31
330 332 336 337 341 340 345 316 293 206 201 235 246 228 221 250 250 244 233 241 249 279 277 295 277 101 100 89 357 49 351 223 273 296 302 100 304 15 14 282 310 288 291 290
329 332 336 334 335 335 336 295 277 190 211 253 292 300 219 233 203 270 289 266 249 223 248 250 261 190 90 86 72 45 356 282 266 273 289 314 256 283 251 243 282 284 290 332
328 331 333 333 326 326 326 256 329 7 284 292 287 264 299 301 216 194 248 245 264 240 239 259 220 193 134 134 115 167 253 257 265 273 271 283 286 282 289 284 271 269 284 313
326 329 332 334 330 324 291 306 351 341 302 292 298 268 260 273 273 279 212 225 260 240 243 239 256 295 130 232 159 205 186 273 269 269 295 278 243 276 281 272 286 293 298 283
325 326 330 334 337 348 318 0 323 294 295 288 253 255 254 240 267 255 239 298 257 258 253 86 61 38 33 360 328 169 220 248 275 275 289 294 283 294 300 281 243 319 300 65
321 321 327 330 335 332 316 317 325 299 288 275 268 250 269 277 273 302 305 237 282 84 101 104 119 346 313 264 250 251 282 210 259 272 297 282 350 86 309 300 296 156 234 87
319 317 325 326 324 313 299 301 312 298 286 282 291 285 280 282 271 252 261 273 79 314 196 211 205 229 234 244 235 176 246 283 230 247 291 295 251 158 192 216 280 196 205 121
318 315 313 322 318 313 290 306 298 281 289 247 347 318 309 278 262 244 223 132 99 236 268 216 245 254 237 238 181 128 235 236 193 239 213 271 106 131 137 98 271 86 100 102
312 310 304 309 321 313 304 280 304 283 277 274 281 291 315 313 301 285 266 133 184 197 227 247 250 241 253 241 204 174 193 208 225 213 242 258 151 136 135 234 111 108 87 89
307 306 299 301 313 321 303 253 276 291 278 272 292 301 287 294 297 308 336 176 214 189 228 242 251 262 271 281 260 156 207 192 214 224 234 242 137 146 250 107 112 119 113 98
305 303 294 281 300 321 312 292 280 266 271 268 285 282 273 270 279 319 301 228 279 223 207 230 251 238 269 253 247 231 213 216 214 60 192 90 128 107 115 140 152 139 137 117
300 300 293 267 277 294 303 291 290 298 279 280 266 261 259 251 245 238 269 217 350 341 11 294 232 281 267 247 261 259 189 224 204 200 151 166 163 124 146 170 158 138 133 143
286 293 291 262 263 275 291 282 281 285 286 282 270 270 258 224 227 225 238 260 303 295 275 256 276 238 283 271 296 260 20 128 233 242 213 168 197 170 174 147 130 144 144 146
277 287 288 262 254 269 282 280 266 252 253 310 295 309 264 226 226 229 228 232 251 262 235 246 250 266 270 269 269 271 223 194 207 229 248 181 205 179 172 158 166 163 151 140
274 284 281 266 250 263 301 295 209 219 233 281 278 294 244 227 215 227 224 220 225 236 253 248 243 248 257 264 262 251 249 273 171 267 193 184 144 154 163 167 174 168 164 155
271 280 277 264 239 243 245 247 21 211 214 245 251 248 237 225 210 223 222 214 221 226 234 242 257 219 215 246 254 289 147 205 160 189 141 143 167 155 162 168 163 161 160 158
271 271 278 263 237 254 254 249 233 234 209 250 261 265 289 196 210 215 207 207 211 227 231 237 233 212 191 233 238 251 255 176 181 181 178 180 169 164 165 162 162 166 164 154
263 260 287 253 238 245 242 237 224 219 224 276 275 243 238 187 224 215 197 207 203 215 217 228 229 221 217 218 240 233 219 183 192 180 188 168 172 172 169 173 176 177 173 165
248 259 231 238 216 212 188 177 180 195 214 233 254 269 275 173 247 254 177 235 212 205 219 207 237 223 220 222 225 227 202 191 190 184 189 175 175 174 178 186 189 193 181 174
219 221 229 240 181 185 204 205 189 182 236 222 234 243 259 19 149 279 251 196 214 211 218 218 211 221 223 217 212 219 196 189 192 189 189 185 186 180 184 190 194 193 176 174
220 271 289 272 197 206 217 198 189 193 231 194 224 223 229 212 180 253 311 294 283 217 186 170 236 214 212 217 217 197 192 188 189 186 185 185 190 184 181 187 191 189 177 178
265 245 255 247 233 221 228 198 161 215 206 222 217 222 208 191 131 352 5 214 263 324 183 202 205 213 203 199 199 181 176 186 178 183 182 178 174 174 177 181 186 181 173 182
245 211 247 245 206 225 220 233 212 211 230 220 216 226 193 196 158 146 261 229 299 170 26 224 188 193 168 166 176 162 172 173 176 176 165 165 169 169 174 177 177 171 179 184
247 219 239 230 229 295 280 260 159 241 253 217 290 103 233 169 192 212 227 206 247 266 188 203 136 137 156 165 160 162 166 167 166 164 166 167 165 167 166 169 171 171 180 175
246 242 246 279 294 277 284 221 278 165 226 112 157 216 203 204 226 194 216 235 187 299 5 143 143 141 163 154 156 162 167 166 162 164 166 165 167 166 164 164 169 181 180 181
250 248 245 275 290 270 274 296 353 305 201 205 225 224 208 179 217 231 210 230 266 298 339 340 152 153 153 154 159 159 162 160 159 161 163 167 166 164 162 162 173 180 184 179